Regional Weather Roundup
Issued by NWS

Home | Current Version | Previous Version | Text Only | Print | Product List | Glossary Off
Versions: 1 2 3 4 5 6 7 8 9 10 11 12 13 14 15 16 17 18 19 20 21 22 23 24 25 26 27 28 29 30 31 32 33 34 35 36 37 38 39 40 41 42 43 44 45 46 47 48 49 50

000
ASUS43 KMPX 250410
RWRMN
WEATHER ROUNDUP FOR MINNESOTA
NATIONAL WEATHER SERVICE TWIN CITIES/CHANHASSEN MN
1000 PM CST WED DEC 24 2014


NOTE: "FAIR" INDICATES FEW OR NO CLOUDS BELOW 12,000 FEET WITH NO
SIGNIFICANT WEATHER AND/OR OBSTRUCTIONS TO VISIBILITY. N/A MEANS
CURRENT SKY AND/OR WEATHER CONDITIONS ARE NOT AVAILABLE.

MNZ060>063-068>070-250500-
   Twin Cities Metro

CITY           SKY/WX    TMP DP  RH WIND       PRES   REMARKS
TWIN CITIES    CLOUDY    32  27  81 SW10      29.59F WCI  24
ST PAUL        CLOUDY    32  28  85 SW12      29.60F WCI  23
CRYSTAL        CLOUDY    33  28  81 SW14G21   29.58S WCI  23
BLAINE         CLOUDY    34  30  86 SW12      29.58S WCI  25
LAKEVILLE      CLOUDY    30  28  93 SW6       29.60S WCI  24
EDEN PRAIRIE   CLOUDY    31  27  85 SW10      29.58F WCI  22
SOUTH ST PAUL  CLOUDY    33  29  86 SW5       29.59F WCI  28
LAKE ELMO      CLOUDY    32  32 100 SW10      29.59F WCI  24
$$
MNZ001>005-007-008-013>017-022>024-027-028-250500-
   Northwest Minnesota

CITY           SKY/WX    TMP DP  RH WIND       PRES   REMARKS
BEMIDJI        CLOUDY    28  26  91 S7        29.44F WCI  21
HALLOCK        CLOUDY    28  27  93 S13       29.40F FOG     WCI  18
ROSEAU         CLOUDY    28  25  86 S10       29.42F WCI  19
WARROAD        CLOUDY    28  25  86 S8        29.42F WCI  20
THIEF RVR FALL CLOUDY    27  27 100 SW15      29.43F WCI  15
CROOKSTON      CLOUDY    28  27  93 SW14      29.45F WCI  17
FOSSTON        CLOUDY    27  25  93 S14       29.45F WCI  15
DETROIT LAKES  CLOUDY    28  28 100 S8        29.47F WCI  20
MOORHEAD       CLOUDY    30  30 100 S10       29.49F WCI  21
PARK RAPIDS    CLOUDY    28  25  88 S10       29.46F WCI  19
MAHNOMEN       CLOUDY    27  26  94 SW10      29.46S WCI  17
$$
MNZ006-009>011-018-025>026-250500-
   North Central Minnesota

CITY           SKY/WX    TMP DP  RH WIND       PRES   REMARKS
BAUDETTE       CLOUDY    30  26  85 S7        29.42F WCI  23
FLAG ISLAND    LGT SNOW  28  27  93 S9        29.40F WCI  20
INTL FALLS     CLOUDY    31  29  92 S5        29.43F WCI  26
WASKISH        CLOUDY    30  28  93 CALM      29.43F
BIG FORK       CLOUDY    30  28  93 SW6       29.46S WCI  24
LONGVILLE      CLOUDY    30  27  86 SW6       29.47F WCI  24
GRAND RAPIDS   CLOUDY    30  27  86 SW6       29.46F WCI  24
CRANE LAKE     LGT SNOW  30  30 100 CALM      29.47F
ORR            LGT SNOW  30  28  93 CALM      29.43F
COOK           CLOUDY    30  30 100 SW3       29.46F
WALKER         CLOUDY    28  26  89 S6        29.47S WCI  22
$$
MNZ012-019>021-037-250500-
   Northeast Minnesota

CITY           SKY/WX    TMP DP  RH WIND       PRES   REMARKS
DULUTH         CLOUDY    32  28  85 W12       29.48F WCI  23
ELY            LGT SNOW  30  30 100 SW6       29.46R WCI  24
HIBBING        CLOUDY    32  29  88 SW5       29.46F WCI  27
EVELETH        CLOUDY    32  32 100 SW6       29.48F WCI  26
DULUTH HARBOR  CLOUDY    34  30  86 CALM      29.52F
TWO HARBORS    CLOUDY    36  30  80 SW3       29.47F
SILVER BAY     CLOUDY    34  30  86 CALM      29.46F
GRAND MARAIS     N/A     33  29  85 CALM      29.48F
G MARAIS ARPRT CLOUDY    27  25  93 CALM      29.44F
$$
MNZ029>031-032-039>041-046>048-054>057-064-250500-
   West Central Minnesota

CITY           SKY/WX    TMP DP  RH WIND       PRES   REMARKS
FERGUS FALLS   CLOUDY    28  27  93 S14       29.53F WCI  17
WHEATON        CLOUDY    27  25  93 S9        29.53F WCI  17
MORRIS         MOCLDY    28  27  93 S10       29.53S WCI  19
ALEXANDRIA     CLOUDY    28  26  92 S12       29.53F WCI  18
ELBOW LAKE     CLOUDY    28  26  96 S13       29.50F WCI  17
WADENA         CLOUDY    27  27 100 S9        29.48F FOG     WCI  17
GLENWOOD       CLOUDY    28  27  93 S13       29.54F WCI  18
APPLETON       MOCLDY    28  27  93 S8        29.55S WCI  20
BENSON         CLOUDY    28  27  93 SW12      29.55S WCI  18
ORTONVILLE     CLOUDY    28  25  86 S10       29.53F WCI  19
MADISON          N/A     32  28  86 S12       29.55S WCI  23
WILLMAR        CLOUDY    30  27  86 S5        29.58S WCI  25
$$
MNZ033>034-036-042>043-049>051-058-059-250500-
   Central Minnesota

CITY           SKY/WX    TMP DP  RH WIND       PRES   REMARKS
ST CLOUD       CLOUDY    33  27  78 SW9       29.55F WCI  25
SAUK CENTRE    CLOUDY    29  28  96 SW8       29.54F WCI  21
PAYNESVILLE    CLOUDY    28  27  99 S10       29.57S WCI  18
AITKIN         CLOUDY    34  28  80 S8        29.47F WCI  27
PINE RIVER     CLOUDY    28  27  93 SW7       29.53S WCI  21
BRAINERD       CLOUDY    30  27  88 S9        29.50F WCI  22
STAPLES        CLOUDY    28  27  93 S8        29.50F WCI  20
LONG PRAIRIE   CLOUDY    28  28 100 W10       29.53F WCI  19
LITTLE FALLS   CLOUDY    30  28  93 SW7       29.55S WCI  23
LITCHFIELD     CLOUDY    30  30 100 SW6       29.58S WCI  24
BUFFALO        CLOUDY    31  28  88 SW6       29.59S WCI  25
MAPLE LAKE     CLOUDY    32  30  93 SW6       29.58S WCI  26
$$
MNZ037-044-045-052-053-250500-
   East Central Minnesota

CITY           SKY/WX    TMP DP  RH WIND       PRES   REMARKS
PRINCETON      CLOUDY    32  28  86 SW5       29.56F WCI  27
MORA           CLOUDY    32  27  80 SW7       29.56F WCI  26
CAMBRIDGE      CLOUDY    34  27  75 S9        29.55S WCI  26
RUSH CITY      CLOUDY    32  29  88 SW5       29.56S WCI  28
MOOSE LAKE     CLOUDY    32  30  93 SW6       29.50F WCI  26
HINCKLEY       CLOUDY    32  30  93 SW9       29.54F WCI  24
CLOQUET        CLOUDY    32  28  86 SW6       29.50S WCI  26
MCGREGOR       CLOUDY    32  30  93 S9        29.50F WCI  24
$$
MNZ071>073-080-081-089-090-097-098-250500-
   Southwest Minnesota

CITY           SKY/WX    TMP DP  RH WIND       PRES   REMARKS
MONTEVIDEO     CLOUDY    28  28 100 SW9       29.57S WCI  20
GRANITE FALLS  CLOUDY    28  26  93 S9        29.60S WCI  19
CANBY          CLOUDY    28  25  89 S6        29.56S WCI  21
MARSHALL       CLOUDY    27  21  80 SW17      29.57F WCI  14
REDWOOD FALLS  CLOUDY    29  26  89 SW14      29.59F WCI  18
OLIVIA         CLOUDY    28  27  93 SW14      29.58F WCI  17
PIPESTONE      CLOUDY    27  25  93 SW13      29.57F FOG     WCI  16
WINDOM         CLOUDY    27  27 100 S13       29.61S WCI  16
WORTHINGTON    CLOUDY    25 -20  13 S14       29.61S WCI  13
JACKSON        CLOUDY    28  27  93 SW15      29.62F WCI  17
TRACY          CLOUDY    28  27  95 SW15      29.58S WCI  16
SLAYTON        CLOUDY    26  25  98 S16       29.59S FOG     WCI  13
$$
MNZ065>067-074>077-082>085-091>093-250500-
   South Central Minnesota

CITY           SKY/WX    TMP DP  RH WIND       PRES   REMARKS
MANKATO        CLOUDY    30  25  80 SW13      29.61S WCI  20
NEW ULM        CLOUDY    28  28 100 SW13      29.61F WCI  18
ST JAMES       CLOUDY    28  27  93 SW12G17   29.63F WCI  18
FAIRMONT       CLOUDY    28  25  86 SW15      29.62F WCI  17
GLENCOE        CLOUDY    32  31  95 SW6       29.59F WCI  26
FARIBAULT      CLOUDY    30  28  93 SW7       29.61F WCI  23
OWATONNA       CLOUDY    30  28  93 SW12      29.62S WCI  21
ALBERT LEA     CLOUDY    30  30 100 SW9       29.62S WCI  22
$$
MNZ078>079-086>088-094>096-250500-
   Southeast Minnesota

CITY           SKY/WX    TMP DP  RH WIND       PRES   REMARKS
ROCHESTER      CLOUDY    30  27  88 SW12      29.62S WCI  20
RED WING       CLOUDY    34  28  80 W6        29.60F WCI  29
STANTON        CLOUDY    33  29  87 SW8       29.60S WCI  25
DODGE CENTER   CLOUDY    30  30 100 SW14      29.61S WCI  20
WINONA         CLOUDY    36  32  87 W5        29.63S
AUSTIN         CLOUDY    30  28  93 SW10      29.62F WCI  21
PRESTON        CLOUDY    31  28  90 SW9       29.63S WCI  22
$$
ABBREVIATIONS USED IN REMARKS
   TC - TEMPERATURES IN CELSIUS
  WCI - WIND CHILL INDEX
   HX - HEAT INDEX
  VSB - VISIBILITY
$$


USA.gov is the U.S. government's official web portal to all federal, state and local government web resources and services.